Time,TemperatureF,DewpointF,PressureIn,WindDirection,WindDirectionDegrees,WindSpeedMPH,WindSpeedGustMPH,Humidity,HourlyPrecipIn,Conditions,Clouds,dailyrainin,SoftwareType,DateUTC
2013-03-17 00:00:00,48.8,46.3,29.84,East,101,1.5,7.0,91,0.00,,---,0.50,VWS V14.01,2013-03-17 04:00:00,
2013-03-17 00:05:00,48.4,45.9,29.85,NE,45,3.0,4.0,91,0.00,,---,0.00,VWS V14.01,2013-03-17 04:05:00,
2013-03-17 00:10:00,48.1,45.3,29.85,East,90,1.5,4.0,90,0.00,,---,0.00,VWS V14.01,2013-03-17 04:10:00,
2013-03-17 00:15:00,47.8,44.7,29.86,ENE,63,4.5,6.0,89,0.00,,---,0.00,VWS V14.01,2013-03-17 04:15:00,
2013-03-17 00:20:00,47.5,44.4,29.86,North,356,1.5,6.0,89,0.00,,---,0.00,VWS V14.01,2013-03-17 04:20:00,
2013-03-17 00:25:00,47.3,44.5,29.86,ENE,68,0.0,6.0,90,0.00,,---,0.00,VWS V14.01,2013-03-17 04:25:00,
2013-03-17 00:30:00,47.1,44.3,29.86,ENE,75,1.5,6.0,90,0.00,,---,0.00,VWS V14.01,2013-03-17 04:30:00,
2013-03-17 00:35:00,46.8,44.0,29.86,ENE,71,1.5,2.0,90,0.00,,---,0.00,VWS V14.01,2013-03-17 04:35:00,
2013-03-17 00:40:00,46.6,43.8,29.86,ENE,77,1.5,3.0,90,0.00,,---,0.00,VWS V14.01,2013-03-17 04:40:00,
2013-03-17 00:45:00,46.4,43.6,29.86,NNE,18,1.5,3.0,90,0.00,,---,0.00,VWS V14.01,2013-03-17 04:45:00,
2013-03-17 00:50:00,46.3,43.8,29.86,NE,53,0.0,3.0,91,0.00,,---,0.00,VWS V14.01,2013-03-17 04:50:00,
2013-03-17 00:55:00,46.1,43.6,29.87,NE,53,0.0,3.0,91,0.00,,---,0.00,VWS V14.01,2013-03-17 04:55:00,
2013-03-17 01:00:00,45.9,43.4,29.87,NE,54,0.0,3.0,91,0.00,,---,0.00,VWS V14.01,2013-03-17 05:00:00,
2013-03-17 01:05:00,45.7,43.5,29.87,NE,54,1.5,1.5,92,0.00,,---,0.00,VWS V14.01,2013-03-17 05:05:00,
2013-03-17 01:10:00,45.5,43.6,29.87,NE,53,0.0,1.0,93,0.00,,---,0.00,VWS V14.01,2013-03-17 05:10:00,
2013-03-17 01:16:00,45.4,43.5,29.88,NE,53,1.5,1.5,93,0.00,,---,0.00,VWS V14.01,2013-03-17 05:16:00,
2013-03-17 01:21:00,45.3,43.4,29.88,ENE,73,0.0,2.0,93,0.00,,---,0.00,VWS V14.01,2013-03-17 05:21:00,
2013-03-17 01:26:00,45.3,43.4,29.87,SE,134,3.0,3.0,93,0.00,,---,0.00,VWS V14.01,2013-03-17 05:26:00,
2013-03-17 01:30:00,45.2,43.0,29.88,East,86,3.0,3.0,92,0.00,,---,0.00,VWS V14.01,2013-03-17 05:30:00,
2013-03-17 01:31:00,45.1,42.9,29.88,East,89,3.0,3.0,92,0.00,,---,0.00,VWS V14.01,2013-03-17 05:31:00,
2013-03-17 01:36:00,45.0,42.8,29.88,East,86,0.0,3.0,92,0.00,,---,0.00,VWS V14.01,2013-03-17 05:36:00,
2013-03-17 01:41:00,44.8,42.3,29.88,East,82,0.0,3.0,91,0.00,,---,0.00,VWS V14.01,2013-03-17 05:41:00,
2013-03-17 01:46:00,44.6,42.1,29.88,East,91,1.5,3.0,91,0.00,,---,0.00,VWS V14.01,2013-03-17 05:46:00,
2013-03-17 01:51:00,44.5,42.0,29.88,ENE,57,4.5,4.5,91,0.00,,---,0.00,VWS V14.01,2013-03-17 05:51:00,
2013-03-17 01:56:00,44.3,41.8,29.89,NE,53,1.5,3.0,91,0.00,,---,0.00,VWS V14.01,2013-03-17 05:56:00,
2013-03-17 02:00:00,44.1,41.4,29.89,NE,34,1.5,3.0,90,0.00,,---,0.00,VWS V14.01,2013-03-17 06:00:00,
2013-03-17 02:01:00,44.1,41.4,29.89,NE,34,1.5,3.0,90,0.00,,---,0.00,VWS V14.01,2013-03-17 06:01:00,
2013-03-17 02:06:00,44.0,41.3,29.89,East,93,1.5,3.0,90,0.00,,---,0.00,VWS V14.01,2013-03-17 06:06:00,
2013-03-17 02:11:00,43.9,41.2,29.90,East,93,0.0,3.0,90,0.00,,---,0.00,VWS V14.01,2013-03-17 06:11:00,
2013-03-17 02:16:00,43.6,40.9,29.90,East,90,0.0,3.0,90,0.00,,---,0.00,VWS V14.01,2013-03-17 06:16:00,
2013-03-17 02:21:00,43.5,40.8,29.90,East,90,0.0,3.0,90,0.00,,---,0.00,VWS V14.01,2013-03-17 06:21:00,
2013-03-17 02:26:00,43.3,40.8,29.90,East,90,0.0,3.0,91,0.00,,---,0.00,VWS V14.01,2013-03-17 06:26:00,
2013-03-17 02:30:00,43.1,40.7,29.90,East,90,0.0,3.0,91,0.00,,---,0.00,VWS V14.01,2013-03-17 06:30:00,
2013-03-17 02:31:00,43.1,40.7,29.90,East,90,0.0,0.0,91,0.00,,---,0.00,VWS V14.01,2013-03-17 06:31:00,
2013-03-17 02:36:00,43.0,40.6,29.90,East,91,0.0,1.0,91,0.00,,---,0.00,VWS V14.01,2013-03-17 06:36:00,
2013-03-17 02:41:00,42.8,40.6,29.91,East,91,0.0,1.0,92,0.00,,---,0.00,VWS V14.01,2013-03-17 06:41:00,
2013-03-17 02:47:00,42.5,40.3,29.91,East,90,0.0,1.0,92,0.00,,---,0.00,VWS V14.01,2013-03-17 06:47:00,
2013-03-17 02:52:00,42.5,40.6,29.91,East,80,0.0,2.0,93,0.00,,---,0.00,VWS V14.01,2013-03-17 06:52:00,
2013-03-17 02:57:00,42.4,40.2,29.92,East,101,0.0,2.0,92,0.00,,---,0.00,VWS V14.01,2013-03-17 06:57:00,
2013-03-17 03:00:00,42.4,40.2,29.92,ENE,76,3.0,3.0,92,0.00,,---,0.00,VWS V14.01,2013-03-17 07:00:00,
2013-03-17 03:02:00,42.4,40.2,29.92,NNE,18,3.0,3.0,92,0.00,,---,0.00,VWS V14.01,2013-03-17 07:02:00,
2013-03-17 03:07:00,42.4,40.0,29.92,ENE,58,3.0,3.0,91,0.00,,---,0.00,VWS V14.01,2013-03-17 07:07:00,
2013-03-17 03:12:00,42.3,39.9,29.91,East,95,0.0,4.0,91,0.00,,---,0.00,VWS V14.01,2013-03-17 07:12:00,
2013-03-17 03:17:00,42.2,39.5,29.92,NE,39,3.0,8.0,90,0.00,,---,0.00,VWS V14.01,2013-03-17 07:17:00,
2013-03-17 03:22:00,42.2,39.5,29.92,NE,37,1.5,8.0,90,0.00,,---,0.00,VWS V14.01,2013-03-17 07:22:00,
2013-03-17 03:27:00,42.0,39.3,29.92,NE,40,7.5,8.0,90,0.00,,---,0.00,VWS V14.01,2013-03-17 07:27:00,
2013-03-17 03:30:00,42.0,39.0,29.92,NNE,32,4.5,8.0,89,0.00,,---,0.00,VWS V14.01,2013-03-17 07:30:00,
2013-03-17 03:32:00,41.9,39.2,29.92,NE,36,0.0,3.0,90,0.00,,---,0.00,VWS V14.01,2013-03-17 07:32:00,
2013-03-17 03:37:00,41.8,39.1,29.92,NNE,25,7.5,7.5,90,0.00,,---,0.00,VWS V14.01,2013-03-17 07:37:00,
2013-03-17 03:42:00,41.7,39.0,29.92,NE,43,1.5,5.0,90,0.00,,---,0.00,VWS V14.01,2013-03-17 07:42:00,
2013-03-17 03:48:00,41.5,38.8,29.92,East,86,1.5,5.0,90,0.00,,---,0.00,VWS V14.01,2013-03-17 07:48:00,
2013-03-17 03:53:00,41.4,38.7,29.93,NE,36,4.5,5.0,90,0.00,,---,0.00,VWS V14.01,2013-03-17 07:53:00,
2013-03-17 03:58:00,41.3,38.3,29.93,NE,45,1.5,5.0,89,0.00,,---,0.00,VWS V14.01,2013-03-17 07:58:00,
2013-03-17 04:00:00,41.2,38.5,29.93,NE,45,0.0,5.0,90,0.00,,---,0.00,VWS V14.01,2013-03-17 08:00:00,
2013-03-17 04:03:00,41.1,38.1,29.93,ENE,68,0.0,4.0,89,0.00,,---,0.00,VWS V14.01,2013-03-17 08:03:00,
2013-03-17 04:08:00,41.0,38.0,29.93,ENE,65,1.5,4.0,89,0.00,,---,0.00,VWS V14.01,2013-03-17 08:08:00,
2013-03-17 04:13:00,40.8,38.1,29.94,NE,51,0.0,4.0,90,0.00,,---,0.00,VWS V14.01,2013-03-17 08:13:00,
2013-03-17 04:18:00,40.7,38.0,29.94,ENE,71,0.0,4.0,90,0.00,,---,0.00,VWS V14.01,2013-03-17 08:18:00,
2013-03-17 04:23:00,40.7,38.0,29.93,ENE,70,1.5,4.0,90,0.00,,---,0.00,VWS V14.01,2013-03-17 08:23:00,
2013-03-17 04:28:00,40.5,37.8,29.94,ENE,71,0.0,4.0,90,0.00,,---,0.00,VWS V14.01,2013-03-17 08:28:00,
2013-03-17 04:30:00,40.4,38.0,29.94,ENE,71,1.5,4.0,91,0.00,,---,0.00,VWS V14.01,2013-03-17 08:30:00,
2013-03-17 04:33:00,40.4,38.0,29.94,ENE,71,0.0,1.0,91,0.00,,---,0.00,VWS V14.01,2013-03-17 08:33:00,
2013-03-17 04:38:00,40.3,37.9,29.95,ENE,68,0.0,2.0,91,0.00,,---,0.00,VWS V14.01,2013-03-17 08:38:00,
2013-03-17 04:43:00,40.3,37.9,29.95,ENE,68,0.0,2.0,91,0.00,,---,0.00,VWS V14.01,2013-03-17 08:43:00,
2013-03-17 04:48:00,40.2,37.8,29.96,ENE,68,0.0,2.0,91,0.00,,---,0.00,VWS V14.01,2013-03-17 08:48:00,
2013-03-17 04:53:00,40.2,37.8,29.96,ENE,68,0.0,2.0,91,0.00,,---,0.00,VWS V14.01,2013-03-17 08:53:00,
2013-03-17 04:58:00,40.4,38.3,29.96,East,96,1.5,2.0,92,0.00,,---,0.00,VWS V14.01,2013-03-17 08:58:00,
2013-03-17 05:00:00,40.4,38.0,29.96,East,100,1.5,2.0,91,0.00,,---,0.00,VWS V14.01,2013-03-17 09:00:00,
2013-03-17 05:03:00,40.4,38.0,29.96,NE,44,0.0,1.0,91,0.00,,---,0.00,VWS V14.01,2013-03-17 09:03:00,
2013-03-17 05:08:00,40.4,38.0,29.96,East,94,1.5,3.0,91,0.00,,---,0.00,VWS V14.01,2013-03-17 09:08:00,
2013-03-17 05:13:00,40.4,37.7,29.96,ENE,68,1.5,6.0,90,0.00,,---,0.00,VWS V14.01,2013-03-17 09:13:00,
2013-03-17 05:18:00,40.5,37.8,29.96,ENE,76,1.5,6.0,90,0.00,,---,0.00,VWS V14.01,2013-03-17 09:18:00,
2013-03-17 05:23:00,40.5,37.8,29.96,NE,36,0.0,6.0,90,0.00,,---,0.00,VWS V14.01,2013-03-17 09:23:00,
2013-03-17 05:28:00,40.4,37.7,29.97,ESE,122,0.0,6.0,90,0.00,,---,0.00,VWS V14.01,2013-03-17 09:28:00,
2013-03-17 05:30:00,40.4,37.7,29.97,NE,51,1.5,6.0,90,0.00,,---,0.00,VWS V14.01,2013-03-17 09:30:00,
2013-03-17 05:33:00,40.3,37.6,29.97,ESE,105,1.5,4.0,90,0.00,,---,0.00,VWS V14.01,2013-03-17 09:33:00,
2013-03-17 05:38:00,40.3,37.6,29.97,East,101,0.0,4.0,90,0.00,,---,0.00,VWS V14.01,2013-03-17 09:38:00,
2013-03-17 05:43:00,40.2,37.5,29.98,NE,56,3.0,4.0,90,0.00,,---,0.00,VWS V14.01,2013-03-17 09:43:00,
2013-03-17 05:48:00,40.2,37.5,29.98,ENE,73,3.0,5.0,90,0.00,,---,0.00,VWS V14.01,2013-03-17 09:48:00,
2013-03-17 05:53:00,40.1,37.4,29.98,East,96,3.0,5.0,90,0.00,,---,0.00,VWS V14.01,2013-03-17 09:53:00,
2013-03-17 05:58:00,40.0,37.3,29.99,ENE,59,3.0,5.0,90,0.00,,---,0.00,VWS V14.01,2013-03-17 09:58:00,
2013-03-17 06:00:00,40.0,37.3,29.99,ESE,105,1.5,5.0,90,0.00,,---,0.00,VWS V14.01,2013-03-17 10:00:00,
2013-03-17 06:03:00,40.0,37.3,29.99,ENE,78,3.0,4.0,90,0.00,,---,0.00,VWS V14.01,2013-03-17 10:03:00,
2013-03-17 06:08:00,39.9,37.2,29.99,East,96,1.5,4.0,90,0.00,,---,0.00,VWS V14.01,2013-03-17 10:08:00,
2013-03-17 06:13:00,39.9,37.2,29.99,NE,49,1.5,4.0,90,0.00,,---,0.00,VWS V14.01,2013-03-17 10:13:00,
2013-03-17 06:18:00,39.9,37.2,29.99,NE,36,3.0,4.0,90,0.00,,---,0.00,VWS V14.01,2013-03-17 10:18:00,
2013-03-17 06:23:00,39.9,37.2,30.00,ENE,66,1.5,4.0,90,0.00,,---,0.00,VWS V14.01,2013-03-17 10:23:00,
2013-03-17 06:28:00,39.9,37.2,30.00,ENE,60,3.0,4.0,90,0.00,,---,0.00,VWS V14.01,2013-03-17 10:28:00,
2013-03-17 06:30:00,39.9,36.9,30.00,East,85,1.5,4.0,89,0.00,,---,0.00,VWS V14.01,2013-03-17 10:30:00,
2013-03-17 06:33:00,39.9,36.9,30.00,ESE,112,1.5,3.0,89,0.00,,---,0.00,VWS V14.01,2013-03-17 10:33:00,
2013-03-17 06:39:00,39.8,36.8,30.00,NE,46,6.0,6.0,89,0.00,,---,0.00,VWS V14.01,2013-03-17 10:39:00,
2013-03-17 06:44:00,39.7,36.7,30.01,ENE,63,3.0,5.0,89,0.00,,---,0.00,VWS V14.01,2013-03-17 10:44:00,
2013-03-17 06:49:00,39.6,36.3,30.01,NE,56,3.0,5.0,88,0.00,,---,0.00,VWS V14.01,2013-03-17 10:49:00,
2013-03-17 06:54:00,39.6,36.6,30.00,ENE,64,3.0,6.0,89,0.00,,---,0.00,VWS V14.01,2013-03-17 10:54:00,
2013-03-17 06:59:00,39.6,36.6,30.00,ENE,58,6.0,6.0,89,0.00,,---,0.00,VWS V14.01,2013-03-17 10:59:00,
2013-03-17 07:00:00,39.5,36.5,30.01,ENE,61,0.0,6.0,89,0.00,,---,0.00,VWS V14.01,2013-03-17 11:00:00,
2013-03-17 07:04:00,39.5,36.8,30.01,ENE,61,3.0,3.0,90,0.00,,---,0.00,VWS V14.01,2013-03-17 11:04:00,
2013-03-17 07:09:00,39.5,36.8,30.02,NE,37,3.0,3.0,90,0.00,,---,0.00,VWS V14.01,2013-03-17 11:09:00,
2013-03-17 07:14:00,39.5,36.8,30.02,NE,37,4.5,4.5,90,0.00,,---,0.00,VWS V14.01,2013-03-17 11:14:00,
2013-03-17 07:19:00,39.4,36.7,30.02,ENE,61,4.5,4.5,90,0.00,,---,0.00,VWS V14.01,2013-03-17 11:19:00,
2013-03-17 07:24:00,39.3,36.6,30.02,ENE,72,3.0,5.0,90,0.00,,---,0.00,VWS V14.01,2013-03-17 11:24:00,
2013-03-17 07:29:00,39.3,36.6,30.02,NNE,13,1.5,5.0,90,0.00,,---,0.00,VWS V14.01,2013-03-17 11:29:00,
2013-03-17 07:30:00,39.3,36.6,30.02,East,84,4.5,5.0,90,0.00,,---,0.00,VWS V14.01,2013-03-17 11:30:00,
2013-03-17 07:34:00,39.2,36.5,30.02,NNE,27,1.5,4.0,90,0.00,,---,0.00,VWS V14.01,2013-03-17 11:34:00,
2013-03-17 07:39:00,39.2,36.5,30.03,ESE,104,4.5,5.0,90,0.00,,---,0.00,VWS V14.01,2013-03-17 11:39:00,
2013-03-17 07:44:00,39.1,36.4,30.04,North,3,3.0,5.0,90,0.00,,---,0.00,VWS V14.01,2013-03-17 11:44:00,
2013-03-17 07:49:00,39.1,36.4,30.04,East,86,1.5,5.0,90,0.00,,---,0.00,VWS V14.01,2013-03-17 11:49:00,
2013-03-17 07:54:00,39.2,36.5,30.05,NE,43,1.5,5.0,90,0.00,,---,0.00,VWS V14.01,2013-03-17 11:54:00,
2013-03-17 07:59:00,39.2,36.5,30.05,East,79,7.5,7.5,90,0.00,,---,0.00,VWS V14.01,2013-03-17 11:59:00,
2013-03-17 08:00:00,39.2,36.2,30.05,ENE,71,1.5,5.0,89,0.00,,---,0.00,VWS V14.01,2013-03-17 12:00:00,
2013-03-17 08:04:00,39.1,36.1,30.05,East,82,3.0,3.0,89,0.00,,---,0.00,VWS V14.01,2013-03-17 12:04:00,
2013-03-17 08:09:00,39.2,36.2,30.06,NE,37,4.5,4.5,89,0.00,,---,0.00,VWS V14.01,2013-03-17 12:09:00,
2013-03-17 08:14:00,39.2,36.2,30.06,ENE,60,1.5,5.0,89,0.00,,---,0.00,VWS V14.01,2013-03-17 12:14:00,
2013-03-17 08:19:00,39.1,36.1,30.06,East,100,4.5,6.0,89,0.00,,---,0.00,VWS V14.01,2013-03-17 12:19:00,
2013-03-17 08:24:00,39.1,36.1,30.06,ENE,60,4.5,6.0,89,0.00,,---,0.00,VWS V14.01,2013-03-17 12:24:00,
2013-03-17 08:29:00,39.0,36.0,30.06,ENE,68,1.5,6.0,89,0.00,,---,0.00,VWS V14.01,2013-03-17 12:29:00,
2013-03-17 08:30:00,39.0,36.0,30.06,ENE,70,1.5,6.0,89,0.00,,---,0.00,VWS V14.01,2013-03-17 12:30:00,
2013-03-17 08:34:00,39.0,36.0,30.07,East,97,1.5,4.0,89,0.00,,---,0.00,VWS V14.01,2013-03-17 12:34:00,
2013-03-17 08:39:00,39.0,36.0,30.07,ENE,68,1.5,4.0,89,0.00,,---,0.00,VWS V14.01,2013-03-17 12:39:00,
2013-03-17 08:44:00,39.0,36.3,30.07,NNE,27,1.5,4.0,90,0.00,,---,0.00,VWS V14.01,2013-03-17 12:44:00,
2013-03-17 08:49:00,39.0,36.3,30.07,ENE,66,1.5,4.0,90,0.00,,---,0.00,VWS V14.01,2013-03-17 12:49:00,
2013-03-17 08:54:00,39.0,36.0,30.07,NE,43,1.5,5.0,89,0.00,,---,0.00,VWS V14.01,2013-03-17 12:54:00,
2013-03-17 08:59:00,39.0,36.3,30.08,NE,45,3.0,5.0,90,0.00,,---,0.00,VWS V14.01,2013-03-17 12:59:00,
2013-03-17 09:00:00,39.0,36.3,30.08,NNE,32,3.0,5.0,90,0.00,,---,0.00,VWS V14.01,2013-03-17 13:00:00,
2013-03-17 09:04:00,39.0,36.3,30.08,ENE,73,0.0,3.0,90,0.00,,---,0.00,VWS V14.01,2013-03-17 13:04:00,
2013-03-17 09:09:00,39.1,36.4,30.08,NE,46,1.5,3.0,90,0.00,,---,0.00,VWS V14.01,2013-03-17 13:09:00,
2013-03-17 09:14:00,39.1,36.4,30.09,ENE,58,4.5,4.5,90,0.00,,---,0.00,VWS V14.01,2013-03-17 13:14:00,
2013-03-17 09:19:00,39.1,36.4,30.09,NE,34,1.5,5.0,90,0.00,,---,0.00,VWS V14.01,2013-03-17 13:19:00,
2013-03-17 09:24:00,39.1,36.4,30.09,East,98,1.5,5.0,90,0.00,,---,0.00,VWS V14.01,2013-03-17 13:24:00,
2013-03-17 09:29:00,39.1,36.4,30.10,NE,45,3.0,5.0,90,0.00,,---,0.00,VWS V14.01,2013-03-17 13:29:00,
2013-03-17 09:30:00,39.1,36.4,30.10,NE,48,3.0,5.0,90,0.00,,---,0.00,VWS V14.01,2013-03-17 13:30:00,
2013-03-17 09:34:00,39.1,36.4,30.10,NNE,20,1.5,2.0,90,0.00,,---,0.00,VWS V14.01,2013-03-17 13:34:00,
2013-03-17 09:39:00,39.2,36.8,30.11,NE,53,0.0,2.0,91,0.00,,---,0.00,VWS V14.01,2013-03-17 13:39:00,
2013-03-17 09:44:00,39.2,36.5,30.11,NE,44,6.0,6.0,90,0.00,,---,0.00,VWS V14.01,2013-03-17 13:44:00,
2013-03-17 09:49:00,39.0,36.6,30.11,ENE,59,0.0,6.0,91,0.00,,---,0.00,VWS V14.01,2013-03-17 13:49:00,
2013-03-17 09:54:00,39.0,36.6,30.11,ENE,77,1.5,6.0,91,0.01,,---,0.01,VWS V14.01,2013-03-17 13:54:00,
2013-03-17 09:59:00,38.9,36.8,30.10,East,80,1.5,6.0,92,0.02,,---,0.02,VWS V14.01,2013-03-17 13:59:00,
2013-03-17 10:00:00,38.8,36.7,30.10,NE,40,3.0,6.0,92,0.02,,---,0.02,VWS V14.01,2013-03-17 14:00:00,
2013-03-17 10:04:00,38.8,37.0,30.10,NE,51,3.0,3.0,93,0.02,,---,0.02,VWS V14.01,2013-03-17 14:04:00,
2013-03-17 10:09:00,38.8,37.0,30.11,NNE,28,0.0,3.0,93,0.03,,---,0.03,VWS V14.01,2013-03-17 14:09:00,
2013-03-17 10:14:00,38.9,37.3,30.11,ENE,66,1.5,3.0,94,0.03,,---,0.03,VWS V14.01,2013-03-17 14:14:00,
2013-03-17 10:19:00,38.8,37.2,30.11,East,80,3.0,3.0,94,0.03,,---,0.03,VWS V14.01,2013-03-17 14:19:00,
2013-03-17 10:24:00,38.8,37.2,30.12,NE,55,1.5,3.0,94,0.03,,---,0.03,VWS V14.01,2013-03-17 14:24:00,
2013-03-17 10:29:00,38.7,37.1,30.12,ENE,57,1.5,3.0,94,0.03,,---,0.03,VWS V14.01,2013-03-17 14:29:00,
2013-03-17 10:30:00,38.7,37.1,30.12,NNE,33,3.0,3.0,94,0.04,,---,0.04,VWS V14.01,2013-03-17 14:30:00,
2013-03-17 10:34:00,38.7,37.1,30.11,NE,55,1.5,3.0,94,0.04,,---,0.04,VWS V14.01,2013-03-17 14:34:00,
2013-03-17 10:40:00,38.8,37.5,30.11,NE,43,3.0,3.0,95,0.04,,---,0.04,VWS V14.01,2013-03-17 14:40:00,
2013-03-17 10:45:00,38.7,37.1,30.12,North,352,1.5,4.0,94,0.04,,---,0.04,VWS V14.01,2013-03-17 14:45:00,
2013-03-17 10:50:00,38.8,37.5,30.12,West,271,0.0,4.0,95,0.05,,---,0.05,VWS V14.01,2013-03-17 14:50:00,
2013-03-17 10:55:00,38.8,37.5,30.12,ENE,60,1.5,4.0,95,0.05,,---,0.05,VWS V14.01,2013-03-17 14:55:00,
2013-03-17 11:00:00,38.9,37.6,30.13,North,354,0.0,4.0,95,0.06,,---,0.06,VWS V14.01,2013-03-17 15:00:00,
2013-03-17 11:05:00,38.9,37.6,30.13,NNE,23,3.0,3.0,95,0.05,,---,0.07,VWS V14.01,2013-03-17 15:05:00,
2013-03-17 11:10:00,38.8,37.5,30.13,NE,44,3.0,3.0,95,0.05,,---,0.07,VWS V14.01,2013-03-17 15:10:00,
2013-03-17 11:15:00,38.7,37.4,30.13,North,9,1.5,4.0,95,0.06,,---,0.08,VWS V14.01,2013-03-17 15:15:00,
2013-03-17 11:20:00,38.7,37.4,30.14,East,79,0.0,4.0,95,0.07,,---,0.09,VWS V14.01,2013-03-17 15:20:00,
2013-03-17 11:25:00,38.7,37.4,30.13,ENE,60,6.0,6.0,95,0.08,,---,0.10,VWS V14.01,2013-03-17 15:25:00,
2013-03-17 11:30:00,38.7,37.4,30.13,NE,54,0.0,5.0,95,0.08,,---,0.10,VWS V14.01,2013-03-17 15:30:00,
2013-03-17 11:35:00,38.9,37.9,30.13,NE,49,6.0,6.0,96,0.06,,---,0.10,VWS V14.01,2013-03-17 15:35:00,
2013-03-17 11:40:00,38.8,37.5,30.12,NNE,23,3.0,4.0,95,0.06,,---,0.10,VWS V14.01,2013-03-17 15:40:00,
2013-03-17 11:45:00,38.8,37.5,30.13,NE,36,6.0,6.0,95,0.06,,---,0.10,VWS V14.01,2013-03-17 15:45:00,
2013-03-17 11:50:00,38.8,37.5,30.13,ENE,73,0.0,5.0,95,0.06,,---,0.10,VWS V14.01,2013-03-17 15:50:00,
2013-03-17 11:55:00,38.8,37.2,30.13,NNE,33,4.5,7.0,94,0.06,,---,0.10,VWS V14.01,2013-03-17 15:55:00,
2013-03-17 12:00:00,38.8,37.2,30.13,NE,39,3.0,7.0,94,0.07,,---,0.11,VWS V14.01,2013-03-17 16:00:00,
2013-03-17 12:05:00,38.8,37.2,30.13,NNE,20,0.0,5.0,94,0.05,,---,0.11,VWS V14.01,2013-03-17 16:05:00,
2013-03-17 12:10:00,39.0,37.7,30.13,ESE,121,1.5,5.0,95,0.05,,---,0.11,VWS V14.01,2013-03-17 16:10:00,
2013-03-17 12:15:00,39.1,37.5,30.14,NE,46,4.5,7.0,94,0.05,,---,0.11,VWS V14.01,2013-03-17 16:15:00,
2013-03-17 12:20:00,39.0,37.2,30.14,East,86,0.0,7.0,93,0.05,,---,0.11,VWS V14.01,2013-03-17 16:20:00,
2013-03-17 12:25:00,39.1,37.2,30.14,NE,55,3.0,7.0,93,0.05,,---,0.11,VWS V14.01,2013-03-17 16:25:00,
2013-03-17 12:30:00,39.1,37.2,30.14,SE,136,1.5,7.0,93,0.05,,---,0.11,VWS V14.01,2013-03-17 16:30:00,
2013-03-17 12:35:00,39.2,37.6,30.15,ENE,58,1.5,2.0,94,0.01,,---,0.11,VWS V14.01,2013-03-17 16:35:00,
2013-03-17 12:40:00,39.3,37.5,30.15,NNE,27,3.0,3.0,93,0.01,,---,0.11,VWS V14.01,2013-03-17 16:40:00,
2013-03-17 12:45:00,39.1,37.0,30.15,ENE,69,3.0,3.0,92,0.01,,---,0.11,VWS V14.01,2013-03-17 16:45:00,
2013-03-17 12:50:00,39.3,37.5,30.16,ENE,66,0.0,3.0,93,0.01,,---,0.11,VWS V14.01,2013-03-17 16:50:00,
2013-03-17 12:55:00,39.4,37.8,30.15,East,82,3.0,4.0,94,0.01,,---,0.11,VWS V14.01,2013-03-17 16:55:00,
2013-03-17 13:00:00,39.4,37.5,30.15,ENE,63,3.0,4.0,93,0.01,,---,0.11,VWS V14.01,2013-03-17 17:00:00,
2013-03-17 13:05:00,39.2,37.1,30.15,ENE,61,1.5,5.0,92,0.00,,---,0.11,VWS V14.01,2013-03-17 17:05:00,
2013-03-17 13:10:00,39.2,37.3,30.15,NE,51,0.0,5.0,93,0.01,,---,0.12,VWS V14.01,2013-03-17 17:10:00,
2013-03-17 13:15:00,39.2,37.3,30.16,ENE,75,1.5,5.0,93,0.01,,---,0.12,VWS V14.01,2013-03-17 17:15:00,
2013-03-17 13:20:00,39.3,37.5,30.15,East,88,3.0,5.0,93,0.01,,---,0.12,VWS V14.01,2013-03-17 17:20:00,
2013-03-17 13:25:00,39.3,37.7,30.15,ESE,105,1.5,5.0,94,0.01,,---,0.12,VWS V14.01,2013-03-17 17:25:00,
2013-03-17 13:30:00,39.4,37.8,30.14,East,94,0.0,5.0,94,0.01,,---,0.12,VWS V14.01,2013-03-17 17:30:00,
2013-03-17 13:35:00,39.5,37.9,30.14,ENE,60,1.5,1.5,94,0.02,,---,0.13,VWS V14.01,2013-03-17 17:35:00,
2013-03-17 13:40:00,39.4,37.5,30.13,East,82,0.0,4.0,93,0.02,,---,0.13,VWS V14.01,2013-03-17 17:40:00,
2013-03-17 13:45:00,39.3,37.7,30.13,NE,46,1.5,4.0,94,0.03,,---,0.14,VWS V14.01,2013-03-17 17:45:00,
2013-03-17 13:50:00,39.2,37.3,30.13,East,94,1.5,4.0,93,0.03,,---,0.14,VWS V14.01,2013-03-17 17:50:00,
2013-03-17 13:55:00,39.3,37.7,30.13,NE,54,1.5,4.0,94,0.03,,---,0.14,VWS V14.01,2013-03-17 17:55:00,
2013-03-17 14:00:00,39.4,37.8,30.12,ENE,73,0.0,4.0,94,0.03,,---,0.14,VWS V14.01,2013-03-17 18:00:00,
2013-03-17 14:05:00,39.4,37.5,30.12,ENE,66,0.0,4.0,93,0.03,,---,0.14,VWS V14.01,2013-03-17 18:05:00,
2013-03-17 14:10:00,39.6,38.0,30.12,East,86,3.0,4.0,94,0.03,,---,0.14,VWS V14.01,2013-03-17 18:10:00,
2013-03-17 14:15:00,39.5,37.4,30.12,ENE,68,0.0,5.0,92,0.03,,---,0.14,VWS V14.01,2013-03-17 18:15:00,
2013-03-17 14:20:00,39.3,37.2,30.12,WSW,257,0.0,5.0,92,0.03,,---,0.14,VWS V14.01,2013-03-17 18:20:00,
2013-03-17 14:25:00,39.3,37.2,30.12,ESE,110,3.0,5.0,92,0.03,,---,0.14,VWS V14.01,2013-03-17 18:25:00,
2013-03-17 14:30:00,39.3,37.2,30.12,ENE,71,0.0,5.0,92,0.04,,---,0.15,VWS V14.01,2013-03-17 18:30:00,
2013-03-17 14:35:00,39.2,37.1,30.12,NE,38,6.0,6.0,92,0.03,,---,0.15,VWS V14.01,2013-03-17 18:35:00,
2013-03-17 14:40:00,39.2,37.1,30.11,ENE,72,0.0,4.0,92,0.03,,---,0.15,VWS V14.01,2013-03-17 18:40:00,
2013-03-17 14:45:00,39.2,37.3,30.11,ENE,75,4.5,4.5,93,0.03,,---,0.15,VWS V14.01,2013-03-17 18:45:00,
2013-03-17 14:51:00,39.3,37.5,30.11,ENE,73,0.0,4.0,93,0.03,,---,0.15,VWS V14.01,2013-03-17 18:51:00,
2013-03-17 14:56:00,39.4,37.5,30.11,ESE,117,0.0,4.0,93,0.03,,---,0.15,VWS V14.01,2013-03-17 18:56:00,
2013-03-17 15:00:00,39.4,37.5,30.11,ESE,117,0.0,4.0,93,0.03,,---,0.15,VWS V14.01,2013-03-17 19:00:00,
2013-03-17 15:01:00,39.4,37.5,30.11,ESE,117,0.0,4.0,93,0.03,,---,0.15,VWS V14.01,2013-03-17 19:01:00,
2013-03-17 15:06:00,39.3,37.2,30.12,ESE,117,0.0,1.0,92,0.01,,---,0.15,VWS V14.01,2013-03-17 19:06:00,
2013-03-17 15:11:00,39.3,37.5,30.12,East,82,0.0,2.0,93,0.01,,---,0.15,VWS V14.01,2013-03-17 19:11:00,
2013-03-17 15:16:00,39.3,37.5,30.11,NE,46,6.0,6.0,93,0.01,,---,0.15,VWS V14.01,2013-03-17 19:16:00,
2013-03-17 15:22:00,39.2,37.1,30.11,ENE,61,3.0,4.0,92,0.01,,---,0.15,VWS V14.01,2013-03-17 19:22:00,
2013-03-17 15:27:00,39.2,37.1,30.11,East,91,1.5,4.0,92,0.01,,---,0.15,VWS V14.01,2013-03-17 19:27:00,
2013-03-17 15:30:00,39.2,37.1,30.11,ENE,58,1.5,4.0,92,0.01,,---,0.15,VWS V14.01,2013-03-17 19:30:00,
2013-03-17 15:32:00,39.2,37.1,30.12,ENE,58,1.5,1.5,92,0.00,,---,0.15,VWS V14.01,2013-03-17 19:32:00,
2013-03-17 15:37:00,39.3,37.2,30.12,NE,43,1.5,3.0,92,0.00,,---,0.15,VWS V14.01,2013-03-17 19:37:00,
2013-03-17 15:42:00,39.4,37.5,30.12,ENE,60,1.5,3.0,93,0.00,,---,0.15,VWS V14.01,2013-03-17 19:42:00,
2013-03-17 15:47:00,39.4,37.3,30.12,East,89,1.5,3.0,92,0.00,,---,0.15,VWS V14.01,2013-03-17 19:47:00,
2013-03-17 15:52:00,39.3,37.2,30.12,ESE,113,0.0,5.0,92,0.00,,---,0.15,VWS V14.01,2013-03-17 19:52:00,
2013-03-17 15:57:00,39.3,37.2,30.12,ENE,73,1.5,5.0,92,0.00,,---,0.15,VWS V14.01,2013-03-17 19:57:00,
2013-03-17 16:00:00,39.4,37.3,30.12,ENE,72,1.5,5.0,92,0.00,,---,0.15,VWS V14.01,2013-03-17 20:00:00,
2013-03-17 16:02:00,39.4,37.3,30.12,ENE,72,1.5,1.5,92,0.00,,---,0.15,VWS V14.01,2013-03-17 20:02:00,
2013-03-17 16:07:00,39.6,37.8,30.12,ENE,72,0.0,1.0,93,0.00,,---,0.15,VWS V14.01,2013-03-17 20:07:00,
2013-03-17 16:12:00,39.7,37.8,30.12,ESE,122,1.5,1.5,93,0.00,,---,0.15,VWS V14.01,2013-03-17 20:12:00,
2013-03-17 16:17:00,39.7,37.8,30.12,ENE,64,1.5,3.0,93,0.00,,---,0.15,VWS V14.01,2013-03-17 20:17:00,
2013-03-17 16:22:00,39.7,37.6,30.13,NE,46,4.5,7.0,92,0.00,,---,0.15,VWS V14.01,2013-03-17 20:22:00,
2013-03-17 16:27:00,39.5,37.7,30.13,NE,49,0.0,7.0,93,0.00,,---,0.15,VWS V14.01,2013-03-17 20:27:00,
2013-03-17 16:30:00,39.4,37.5,30.13,North,350,3.0,7.0,93,0.00,,---,0.15,VWS V14.01,2013-03-17 20:30:00,
2013-03-17 16:32:00,39.4,37.5,30.13,ENE,71,3.0,3.0,93,0.00,,---,0.15,VWS V14.01,2013-03-17 20:32:00,
2013-03-17 16:37:00,39.2,37.3,30.13,NE,41,1.5,4.0,93,0.00,,---,0.15,VWS V14.01,2013-03-17 20:37:00,
2013-03-17 16:42:00,39.1,37.5,30.14,NE,44,6.0,6.0,94,0.00,,---,0.15,VWS V14.01,2013-03-17 20:42:00,
2013-03-17 16:47:00,39.0,37.4,30.14,ENE,67,0.0,5.0,94,0.00,,---,0.15,VWS V14.01,2013-03-17 20:47:00,
2013-03-17 16:52:00,39.1,37.8,30.14,ENE,57,1.5,5.0,95,0.00,,---,0.15,VWS V14.01,2013-03-17 20:52:00,
2013-03-17 16:57:00,39.0,37.4,30.14,ENE,60,3.0,5.0,94,0.00,,---,0.15,VWS V14.01,2013-03-17 20:57:00,
2013-03-17 17:00:00,38.8,37.2,30.14,NE,46,1.5,5.0,94,0.00,,---,0.15,VWS V14.01,2013-03-17 21:00:00,
2013-03-17 17:02:00,38.8,37.2,30.14,East,94,1.5,3.0,94,0.00,,---,0.15,VWS V14.01,2013-03-17 21:02:00,
2013-03-17 17:07:00,38.7,37.1,30.14,ENE,64,1.5,5.0,94,0.00,,---,0.15,VWS V14.01,2013-03-17 21:07:00,
2013-03-17 17:12:00,38.7,37.1,30.14,ENE,61,3.0,5.0,94,0.00,,---,0.15,VWS V14.01,2013-03-17 21:12:00,
2013-03-17 17:17:00,38.7,37.1,30.14,ENE,61,3.0,5.0,94,0.00,,---,0.15,VWS V14.01,2013-03-17 21:17:00,
2013-03-17 17:22:00,38.7,37.1,30.14,NE,49,3.0,5.0,94,0.00,,---,0.15,VWS V14.01,2013-03-17 21:22:00,
2013-03-17 17:27:00,38.8,37.2,30.14,ENE,63,0.0,5.0,94,0.01,,---,0.16,VWS V14.01,2013-03-17 21:27:00,
2013-03-17 17:30:00,38.8,37.2,30.15,ENE,63,3.0,5.0,94,0.01,,---,0.16,VWS V14.01,2013-03-17 21:30:00,
2013-03-17 17:32:00,38.7,37.1,30.15,ENE,73,3.0,3.0,94,0.01,,---,0.16,VWS V14.01,2013-03-17 21:32:00,
2013-03-17 17:37:00,38.7,37.1,30.15,NE,51,1.5,4.0,94,0.01,,---,0.16,VWS V14.01,2013-03-17 21:37:00,
2013-03-17 17:43:00,38.6,37.0,30.15,ENE,71,1.5,4.0,94,0.01,,---,0.16,VWS V14.01,2013-03-17 21:43:00,
2013-03-17 17:48:00,38.5,36.9,30.15,ENE,71,3.0,4.0,94,0.01,,---,0.16,VWS V14.01,2013-03-17 21:48:00,
2013-03-17 17:53:00,38.5,36.9,30.15,East,96,1.5,4.0,94,0.01,,---,0.16,VWS V14.01,2013-03-17 21:53:00,
2013-03-17 17:58:00,38.4,36.8,30.15,East,94,0.0,4.0,94,0.01,,---,0.16,VWS V14.01,2013-03-17 21:58:00,
2013-03-17 18:00:00,38.5,37.2,30.15,ENE,58,4.5,4.5,95,0.01,,---,0.16,VWS V14.01,2013-03-17 22:00:00,
2013-03-17 18:03:00,38.5,36.9,30.15,East,79,1.5,2.0,94,0.01,,---,0.16,VWS V14.01,2013-03-17 22:03:00,
2013-03-17 18:08:00,38.4,36.8,30.15,ENE,77,0.0,3.0,94,0.01,,---,0.16,VWS V14.01,2013-03-17 22:08:00,
2013-03-17 18:13:00,38.4,36.8,30.15,NE,55,3.0,3.0,94,0.01,,---,0.16,VWS V14.01,2013-03-17 22:13:00,
2013-03-17 18:18:00,38.4,36.8,30.16,ENE,64,1.5,3.0,94,0.01,,---,0.16,VWS V14.01,2013-03-17 22:18:00,
2013-03-17 18:23:00,38.4,36.8,30.17,East,90,0.0,3.0,94,0.01,,---,0.16,VWS V14.01,2013-03-17 22:23:00,
2013-03-17 18:28:00,38.3,36.7,30.16,East,93,1.5,4.0,94,0.01,,---,0.16,VWS V14.01,2013-03-17 22:28:00,
2013-03-17 18:30:00,38.3,36.7,30.16,East,89,1.5,4.0,94,0.01,,---,0.16,VWS V14.01,2013-03-17 22:30:00,
2013-03-17 18:33:00,38.3,36.7,30.16,ESE,114,1.5,4.0,94,0.00,,---,0.16,VWS V14.01,2013-03-17 22:33:00,
2013-03-17 18:38:00,38.2,36.6,30.16,East,95,1.5,4.0,94,0.00,,---,0.16,VWS V14.01,2013-03-17 22:38:00,
2013-03-17 18:43:00,38.2,36.6,30.17,East,85,1.5,4.0,94,0.00,,---,0.16,VWS V14.01,2013-03-17 22:43:00,
2013-03-17 18:48:00,38.1,36.5,30.17,SSE,148,1.5,5.0,94,0.00,,---,0.16,VWS V14.01,2013-03-17 22:48:00,
2013-03-17 18:53:00,38.1,36.5,30.17,East,100,1.5,1.5,94,0.00,,---,0.16,VWS V14.01,2013-03-17 22:53:00,
2013-03-17 18:58:00,38.1,36.5,30.18,East,83,1.5,2.0,94,0.00,,---,0.16,VWS V14.01,2013-03-17 22:58:00,
2013-03-17 19:03:00,38.0,36.4,30.18,NE,53,1.5,1.5,94,0.00,,---,0.16,VWS V14.01,2013-03-17 23:03:00,
2013-03-17 19:08:00,38.1,36.5,30.18,East,98,0.0,3.0,94,0.00,,---,0.16,VWS V14.01,2013-03-17 23:08:00,
2013-03-17 19:13:00,38.1,36.5,30.18,ESE,102,3.0,3.0,94,0.00,,---,0.16,VWS V14.01,2013-03-17 23:13:00,
2013-03-17 19:18:00,38.0,36.4,30.19,ESE,120,1.5,3.0,94,0.00,,---,0.16,VWS V14.01,2013-03-17 23:18:00,
2013-03-17 19:23:00,38.0,36.4,30.19,East,96,0.0,3.0,94,0.00,,---,0.16,VWS V14.01,2013-03-17 23:23:00,
2013-03-17 19:28:00,38.0,36.4,30.19,ESE,109,0.0,3.0,94,0.00,,---,0.16,VWS V14.01,2013-03-17 23:28:00,
2013-03-17 19:33:00,38.1,36.5,30.19,ESE,108,0.0,0.0,94,0.00,,---,0.16,VWS V14.01,2013-03-17 23:33:00,
2013-03-17 19:38:00,38.1,36.5,30.20,ESE,106,0.0,1.0,94,0.00,,---,0.16,VWS V14.01,2013-03-17 23:38:00,
2013-03-17 19:43:00,38.0,36.4,30.19,NE,51,3.0,3.0,94,0.00,,---,0.16,VWS V14.01,2013-03-17 23:43:00,
2013-03-17 19:48:00,38.0,36.4,30.20,NE,53,1.5,3.0,94,0.00,,---,0.16,VWS V14.01,2013-03-17 23:48:00,
2013-03-17 19:53:00,37.9,36.3,30.20,ESE,103,1.5,3.0,94,0.01,,---,0.17,VWS V14.01,2013-03-17 23:53:00,
2013-03-17 19:58:00,37.7,36.4,30.20,ESE,103,0.0,3.0,95,0.02,,---,0.18,VWS V14.01,2013-03-17 23:58:00,
2013-03-17 20:03:00,37.6,36.3,30.19,East,95,1.5,2.0,95,0.02,,---,0.18,VWS V14.01,2013-03-18 00:03:00,
2013-03-17 20:08:00,37.4,36.1,30.19,East,93,1.5,3.0,95,0.03,,---,0.19,VWS V14.01,2013-03-18 00:08:00,
2013-03-17 20:13:00,37.3,36.0,30.20,East,82,0.0,3.0,95,0.03,,---,0.19,VWS V14.01,2013-03-18 00:13:00,
2013-03-17 20:18:00,37.3,36.0,30.20,ESE,104,1.5,3.0,95,0.03,,---,0.19,VWS V14.01,2013-03-18 00:18:00,
2013-03-17 20:24:00,37.2,36.2,30.19,East,79,1.5,4.0,96,0.03,,---,0.19,VWS V14.01,2013-03-18 00:24:00,
2013-03-17 20:29:00,37.2,36.2,30.20,ESE,117,0.0,4.0,96,0.03,,---,0.19,VWS V14.01,2013-03-18 00:29:00,
2013-03-17 20:34:00,37.2,36.2,30.19,East,84,0.0,2.0,96,0.05,,---,0.21,VWS V14.01,2013-03-18 00:34:00,
2013-03-17 20:39:00,37.2,36.2,30.19,East,88,1.5,3.0,96,0.05,,---,0.21,VWS V14.01,2013-03-18 00:39:00,
2013-03-17 20:44:00,37.1,36.1,30.19,SE,124,1.5,3.0,96,0.05,,---,0.21,VWS V14.01,2013-03-18 00:44:00,
2013-03-17 20:49:00,37.1,36.1,30.19,ESE,114,0.0,3.0,96,0.05,,---,0.21,VWS V14.01,2013-03-18 00:49:00,
2013-03-17 20:54:00,37.0,36.0,30.19,East,100,1.5,3.0,96,0.05,,---,0.21,VWS V14.01,2013-03-18 00:54:00,
2013-03-17 20:59:00,37.0,36.0,30.20,East,90,1.5,4.0,96,0.05,,---,0.21,VWS V14.01,2013-03-18 00:59:00,
2013-03-17 21:00:00,37.0,36.0,30.20,East,90,1.5,4.0,96,0.06,,---,0.22,VWS V14.01,2013-03-18 01:00:00,
2013-03-17 21:56:00,37.0,36.0,30.20,East,90,1.5,4.0,96,0.06,,---,0.22,VWS V14.01,2013-03-18 01:56:00,
2013-03-17 22:01:00,36.3,35.3,30.22,NE,41,3.0,3.0,96,0.10,,---,0.32,VWS V14.01,2013-03-18 02:01:00,
2013-03-17 22:06:00,36.3,35.3,30.22,East,91,1.5,2.0,96,0.11,,---,0.33,VWS V14.01,2013-03-18 02:06:00,
2013-03-17 22:12:00,36.3,35.3,30.23,East,89,1.5,3.0,96,0.11,,---,0.33,VWS V14.01,2013-03-18 02:12:00,
2013-03-17 22:17:00,36.3,35.5,30.23,NE,43,1.5,3.0,97,0.12,,---,0.34,VWS V14.01,2013-03-18 02:17:00,
2013-03-17 22:22:00,36.3,35.5,30.23,ESE,107,0.0,3.0,97,0.12,,---,0.34,VWS V14.01,2013-03-18 02:22:00,
2013-03-17 22:27:00,36.3,35.5,30.22,ESE,112,3.0,4.0,97,0.12,,---,0.34,VWS V14.01,2013-03-18 02:27:00,
2013-03-17 22:32:00,36.2,35.4,30.23,ENE,70,0.0,2.0,97,0.03,,---,0.35,VWS V14.01,2013-03-18 02:32:00,
2013-03-17 22:37:00,36.0,35.0,30.22,East,98,1.5,4.0,96,0.03,,---,0.35,VWS V14.01,2013-03-18 02:37:00,
2013-03-17 22:42:00,35.7,34.7,30.23,ENE,75,0.0,4.0,96,0.03,,---,0.35,VWS V14.01,2013-03-18 02:42:00,
2013-03-17 22:47:00,35.6,34.6,30.24,ENE,75,0.0,4.0,96,0.03,,---,0.35,VWS V14.01,2013-03-18 02:47:00,
2013-03-17 22:52:00,35.4,34.4,30.24,ENE,73,0.0,4.0,96,0.04,,---,0.36,VWS V14.01,2013-03-18 02:52:00,
2013-03-17 22:57:00,35.3,34.5,30.25,NW,307,0.0,4.0,97,0.04,,---,0.36,VWS V14.01,2013-03-18 02:57:00,
2013-03-17 23:02:00,35.2,34.4,30.25,East,79,0.0,0.0,97,0.04,,---,0.36,VWS V14.01,2013-03-18 03:02:00,
2013-03-17 23:07:00,35.1,34.3,30.24,East,79,1.5,1.5,97,0.04,,---,0.36,VWS V14.01,2013-03-18 03:07:00,
2013-03-17 23:12:00,34.9,34.1,30.25,North,8,0.0,1.0,97,0.04,,---,0.36,VWS V14.01,2013-03-18 03:12:00,
2013-03-17 23:17:00,34.8,34.0,30.24,NE,46,0.0,1.0,97,0.04,,---,0.36,VWS V14.01,2013-03-18 03:17:00,
2013-03-17 23:22:00,34.6,33.8,30.25,NE,46,0.0,1.0,97,0.05,,---,0.37,VWS V14.01,2013-03-18 03:22:00,
2013-03-17 23:27:00,34.5,33.7,30.26,NNE,30,1.5,2.0,97,0.05,,---,0.37,VWS V14.01,2013-03-18 03:27:00,
2013-03-17 23:32:00,34.5,33.7,30.26,NNE,30,0.0,0.0,97,0.03,,---,0.38,VWS V14.01,2013-03-18 03:32:00,
2013-03-17 23:37:00,34.4,33.6,30.25,ENE,58,0.0,2.0,97,0.03,,---,0.38,VWS V14.01,2013-03-18 03:37:00,
2013-03-17 23:42:00,34.4,33.6,30.25,ENE,76,1.5,2.0,97,0.03,,---,0.38,VWS V14.01,2013-03-18 03:42:00,
2013-03-17 23:47:00,34.2,33.4,30.25,ENE,70,1.5,2.0,97,0.03,,---,0.38,VWS V14.01,2013-03-18 03:47:00,
2013-03-17 23:53:00,34.0,33.2,30.25,ENE,65,1.5,2.0,97,0.03,,---,0.38,VWS V14.01,2013-03-18 03:53:00,
2013-03-17 23:58:00,33.9,33.1,30.24,ENE,76,0.0,3.0,97,0.03,,---,0.38,VWS V14.01,2013-03-18 03:58:00,